This demonstration page uses our WeatherBlox Daily Observations layout. Learn more.

Left ArrowRight Arrow

40.92945, -100.16068

Hourly Observations for October 6, 2021

Temp ( °F °C ) Dew Point ( °F °C ) Humidity (%) Winds ( mph kmh ) Pressure ( in mb ) Visibility ( mi km ) Precip ( " mm )
12:15 am 00:15 Clear 48 8.7 44 6.5 86 86 E 3 6 30.19 1022 10 16 N/A
12:35 am 00:35 Clear 49 9.3 44 6.4 82 82 N N/A 30.19 1022 10 16 N/A
12:55 am 00:55 Clear 47 8.2 43 6.2 87 87 E 3 6 30.20 1023 10 16 N/A
1:15 am 01:15 Clear 46 7.6 43 5.9 89 89 N N/A 30.20 1023 10 16 N/A
1:35 am 01:35 Clear 46 7.8 43 5.9 88 88 E 5 7 30.20 1023 10 16 N/A
1:55 am 01:55 Clear 46 7.6 43 5.9 89 89 N N/A 30.20 1023 10 16 N/A
2:15 am 02:15 Clear 46 7.7 42 5.6 87 87 ESE 3 6 30.20 1023 10 16 N/A
2:35 am 02:35 Clear 46 7.7 43 5.9 89 89 SE 5 7 30.20 1023 10 16 N/A
2:55 am 02:55 Clear 48 8.7 43 6 83 83 SE 5 7 30.19 1022 10 16 N/A
3:15 am 03:15 Clear 48 8.9 44 6.8 87 87 SE 6 9 30.19 1022 10 16 N/A
3:35 am 03:35 Clear 51 10.6 47 8.5 87 87 SE 6 9 30.18 1022 10 16 N/A
3:55 am 03:55 Clear 50 10 46 8 88 88 SE 5 7 30.18 1022 10 16 N/A
4:15 am 04:15 Clear 45 7.1 43 6.1 93 93 E 3 6 30.21 1023 10 16 N/A
4:35 am 04:35 Clear 45 7.4 44 6.5 94 94 ESE 5 7 30.21 1023 10 16 N/A
4:55 am 04:55 Clear 45 7.3 44 6.5 95 95 ESE 3 6 30.21 1023 10 16 N/A
5:15 am 05:15 Clear 45 7.2 44 6.4 95 95 E 3 6 30.20 1023 10 16 N/A
5:35 am 05:35 Clear 45 7 43 6.2 95 95 ESE 3 6 30.21 1023 10 16 N/A
5:55 am 05:55 Clear 45 7.1 44 6.4 95 95 N N/A 30.20 1023 10 16 N/A
6:15 am 06:15 Clear 44 6.5 42 5.8 95 95 E 3 6 30.20 1023 10 16 N/A
6:35 am 06:35 Clear 43 6.3 42 5.7 96 96 N N/A 30.21 1023 10 16 N/A
6:55 am 06:55 Clear 43 6.2 42 5.7 97 97 N N/A 30.21 1023 7 11 N/A
7:15 am 07:15 Clear 44 6.6 43 6.1 97 97 E 6 9 30.20 1023 7 11 N/A
7:35 am 07:35 Clear 44 6.4 43 6 97 97 E 5 7 30.21 1023 7 11 N/A
7:55 am 07:55 Sunny with Mist and Fog 44 6.9 44 6.6 98 98 E 3 6 30.20 1023 5 8 N/A
8:15 am 08:15 Sunny with Mist and Fog 47 8.2 46 7.8 97 97 E 5 7 30.18 1022 5 8 N/A
8:35 am 08:35 Sunny 49 9.7 49 9.3 97 97 ESE 3 6 30.17 1022 7 11 N/A
8:55 am 08:55 Sunny 52 11 50 9.9 93 93 SE 5 7 30.16 1021 10 16 N/A
9:15 am 09:15 Sunny 54 12.1 51 10.5 90 90 SE 6 9 30.15 1021 10 16 N/A
9:35 am 09:35 Sunny 55 12.8 51 10.7 87 87 SSE 6 9 30.16 1021 10 16 N/A
9:55 am 09:55 Sunny 57 14.1 53 11.8 86 86 SSE 5 7 30.13 1020 10 16 N/A
10:15 am 10:15 Sunny 61 15.9 55 12.5 80 80 SSE 6 9 30.11 1020 10 16 N/A
10:35 am 10:35 Sunny 65 18.2 56 13.1 72 72 S 9 15 30.09 1019 10 16 N/A
10:55 am 10:55 Sunny 67 19.4 55 12.8 66 66 SSE 9 15 30.07 1018 10 16 N/A
11:15 am 11:15 Sunny 68 20.1 55 12.5 62 62 SSE 14 22 30.06 1018 10 16 N/A
11:35 am 11:35 Sunny 69 20.5 54 12 58 58 SSE 12 19 30.06 1018 10 16 N/A
11:55 am 11:55 Sunny 70 21.1 54 12 56 56 S 15 24 30.04 1017 10 16 N/A
12:15 pm 12:15 Sunny 71 21.6 54 12.1 55 55 SSE 12 19 30.03 1017 10 16 N/A
12:55 pm 12:55 Sunny 73 22.6 53 11.5 50 50 SE 13 20 30.00 1016 10 16 N/A
1:15 pm 13:15 Sunny 74 23.1 52 11.3 47 47 SSE 13 20 30.00 1016 10 16 N/A
1:35 pm 13:35 Sunny 74 23.1 53 11.6 48 48 SE 13 20 29.99 1015 10 16 N/A
1:55 pm 13:55 Sunny 74 23.4 53 11.9 49 49 SSE 13 20 29.97 1015 10 16 N/A
2:15 pm 14:15 Sunny 74 23.4 53 11.6 48 48 SE 16 26 29.96 1015 10 16 N/A
2:35 pm 14:35 Sunny 74 23.4 53 11.6 48 48 SE 18 30 29.94 1014 10 16 N/A
2:55 pm 14:55 Sunny 75 23.9 53 11.8 47 47 SSE 13 20 29.94 1014 10 16 N/A
3:15 pm 15:15 Sunny 75 24 53 11.4 45 45 SSE 15 24 29.93 1013 10 16 N/A
3:35 pm 15:35 Sunny 75 23.8 53 11.5 46 46 SSE 16 26 29.92 1013 10 16 N/A
3:55 pm 15:55 Sunny 75 24 52 11.3 45 45 SSE 14 22 29.92 1013 10 16 N/A
4:15 pm 16:15 Sunny 75 24.1 52 11.1 44 44 SSE 16 26 29.92 1013 10 16 N/A
4:35 pm 16:35 Sunny 75 24 52 11.2 45 45 SSE 14 22 29.91 1013 10 16 N/A
4:55 pm 16:55 Sunny 75 24.1 53 11.6 46 46 SE 16 26 29.91 1013 10 16 N/A
5:15 pm 17:15 Sunny 74 23.5 53 11.5 47 47 SSE 14 22 29.91 1013 10 16 N/A
5:35 pm 17:35 Sunny 74 23.3 53 11.5 48 48 SE 14 22 29.90 1013 10 16 N/A
5:55 pm 17:55 Sunny 73 22.8 53 11.9 50 50 SE 15 24 29.92 1013 10 16 N/A
6:15 pm 18:15 Sunny 72 22.3 54 12.1 53 53 SSE 16 26 29.92 1013 10 16 N/A
6:35 pm 18:35 Sunny 71 21.9 54 12.2 54 54 SE 14 22 29.93 1013 10 16 N/A
6:55 pm 18:55 Sunny 70 20.9 54 12.2 58 58 SE 9 15 29.93 1014 10 16 N/A
7:15 pm 19:15 Clear 69 20.3 54 12.1 59 59 SE 8 13 29.94 1014 10 16 N/A
7:35 pm 19:35 Clear 67 19.5 54 12 62 62 SE 10 17 29.95 1014 10 16 N/A
7:55 pm 19:55 Clear 66 18.9 54 12 64 64 SE 9 15 29.96 1015 10 16 N/A
8:15 pm 20:15 Clear 64 17.9 53 11.9 68 68 SE 9 15 29.97 1015 10 16 N/A
8:35 pm 20:35 Clear 63 17.3 53 11.7 70 70 SE 9 15 29.98 1015 10 16 N/A
8:55 pm 20:55 Clear 63 17.4 53 11.6 69 69 SE 9 15 29.97 1015 10 16 N/A
9:15 pm 21:15 Clear 63 17 53 11.6 71 71 SE 9 15 29.98 1015 10 16 N/A
9:35 pm 21:35 Clear 61 16.2 53 11.5 74 74 SE 10 17 29.99 1015 10 16 N/A
9:55 pm 21:55 Clear 61 16 53 11.5 75 75 SE 9 15 29.99 1015 10 16 N/A
10:15 pm 22:15 Clear 61 16 53 11.6 75 75 SE 10 17 29.99 1015 10 16 N/A
10:35 pm 22:35 Clear 60 15.6 53 11.6 77 77 SE 10 17 29.99 1016 10 16 N/A
10:55 pm 22:55 Clear 60 15.5 53 11.7 78 78 SE 10 17 30.00 1016 10 16 N/A
11:15 pm 23:15 Clear 60 15.3 53 11.8 80 80 SE 8 13 30.00 1016 10 16 N/A
11:35 pm 23:35 Clear 59 15 54 12 82 82 SE 9 15 30.01 1016 10 16 N/A
11:55 pm 23:55 Clear 59 15 54 12 82 82 SE 9 15 30.01 1016 10 16 N/A

Powered by AerisWeather